Tracking 29892 objects as of 21-Nov-2024
HD Live streaming from Space Station
objects crossing your sky now

DELTA 1 DEB

Track DELTA 1 DEB now!
10-day predictions


NORAD ID: 7071
Int'l Code: 1973-086BP
Perigee: 1,503.7 km
Apogee: 1,514.2 km
Inclination: 101.6 °
Period: 116.0 minutes
Semi major axis: 7879 km
RCS: 0.237 m2 (medium)
Launch date: November 6, 1973
Source: United States (US)
Launch site: AIR FORCE WESTERN TEST RANGE (AFWTR)

Note: This is SATELLITE DEBRIS
Your satellite tracking list
Your tracking list is empty




NASA's NSSDC Master Catalog

Two Line Element Set (TLE):
1 07071U 73086BP  24325.95286245 -.00000007  00000-0  25989-3 0  9990
2 07071 101.5787 323.0391 0006622  99.1910 289.3755 12.41128082312006
Source of the keplerian elements: AFSPC